Theta_e
325 325 325 325 325 326 326 327 327 327 327 327 328 329 328 327 326 326 324 323 322 322
326 325 326 326 327 327 327 328 328 327 327 328 329 329 328 327 325 325 325 324 324 323
327 327 328 328 326 326 327 327 326 327 327 326 327 326 326 326 325 323 324 322 322 322
317 326 328 327 327 327 326 324 323 324 322 321 321 321 321 320 320 319 317 318 318 317
310 315 320 321 321 322 321 321 321 322 321 320 319 319 318 317 316 316 315 315 314 314
310 312 314 315 316 317 318 318 318 318 317 316 315 314 314 313 312 311 311 311 311 311
306 307 308 308 309 310 311 311 312 312 312 310 309 308 306 305 306 306 306 305 305 307
302 303 303 303 303 304 305 305 306 305 305 305 304 303 304 304 304 305 305 304 302 302
301 300 300 300 300 300 300 301 301 301 301 299 296 293 298 302 304 302 302 301 299 298
298 297 297 297 298 297 298 298 298 298 297 296 295 295 295 295 297 298 297 297 296 295
294 295 294 294 294 294 294 294 294 293 293 293 292 294 294 291 294 294 294 294 293 293
291 290 290 290 290 290 291 290 291 290 291 291 290 292 293 292 291 290 289 289 290 290
288 288 289 288 288 287 287 288 285 287 288 287 289 292 292 291 285 288 284 287 288 288
286 287 287 287 286 286 286 286 286 286 286 287 287 288 292 292 287 285 285 284 284 285
Wind_Speed
14 10 11 12 10 8 8 8 9 11 13 14 13 12 11 9 9 10 9 12 9 8
12 13 11 12 10 8 9 9 11 11 12 13 13 14 12 9 10 10 10 11 11 10
11 13 13 11 12 12 11 10 9 10 10 10 9 8 8 8 8 7 7 5 6 6
6 8 12 12 11 13 10 8 7 8 6 5 6 6 5 5 5 6 4 4 5 5
6 6 7 7 6 6 6 5 4 5 5 5 5 5 5 4 4 4 4 4 3 3
3 4 5 5 5 5 6 6 4 5 5 5 5 5 4 4 3 3 3 2 3 4
3 3 4 5 5 5 4 6 5 4 5 5 5 4 4 3 2 2 3 3 3 2
3 2 2 4 5 6 6 5 5 6 5 5 4 3 4 3 3 2 2 2 2 3
4 3 2 3 3 4 5 5 5 5 5 6 4 5 6 4 3 3 3 3 2 3
2 3 5 4 4 3 2 3 6 5 5 5 4 5 5 5 3 2 1 2 2 1
1 2 3 3 3 3 2 3 4 4 5 5 4 4 5 4 4 3 3 2 2 1
2 2 0 0 2 2 2 2 3 2 4 5 3 4 3 3 3 3 2 1 1 2
4 3 4 4 4 1 1 2 3 4 3 4 5 6 6 5 3 3 1 0 1 1
6 5 4 1 1 2 3 4 3 4 4 4 4 4 6 5 2 2 1 1 1 2
Wind_Direction
221 211 217 220 214 208 213 212 213 211 217 227 226 222 216 215 216 213 215 221 216 220
219 216 219 222 218 226 224 205 216 218 219 223 222 220 210 206 210 209 213 220 222 222
225 222 222 217 215 217 229 220 202 212 218 219 210 224 216 220 223 218 223 218 223 231
241 229 225 220 216 213 213 207 187 192 203 193 223 227 211 208 198 211 203 207 211 235
236 233 213 211 204 202 194 167 191 189 186 200 204 177 186 202 183 177 213 223 229 231
199 198 180 161 161 158 155 161 169 169 188 188 173 169 155 169 166 152 223 204 234 228
249 191 166 154 143 139 143 138 144 146 148 148 149 138 139 137 155 190 224 213 213 223
283 264 174 159 159 156 148 136 139 136 119 112 114 124 146 154 179 189 207 89 54 34
358 18 67 48 28 104 109 119 126 120 132 133 124 135 104 136 150 147 144 165 139 120
79 72 9 12 97 89 81 113 118 113 132 110 91 94 101 97 96 105 114 147 161 197
117 126 115 69 28 21 44 108 121 119 104 106 85 97 104 110 129 134 152 169 181 185
266 236 168 204 152 124 106 42 12 66 126 130 126 127 139 118 132 147 139 106 114 179
305 257 223 201 187 187 135 163 137 124 117 143 148 158 162 152 141 145 141 98 232 264
355 325 305 183 174 165 149 138 171 161 149 158 162 155 155 156 138 157 135 173 283 281